This is the latest recevied weather packets stored in our database for station/object KA1JKB. If no packets are shown the sender has not sent any weather packets the latest 10 day(s).
| Time | Temp. | Humidity | Pressure | Rain* | Wind** | Luminosity | Snow |
|---|---|---|---|---|---|---|---|
| 1777427615 | 10° C | 88% | 1010.8 hPa | 0 mm | - | 0 W/m² | - |
| 1777427312 | 10.56° C | 87% | 1010.5 hPa | 0 mm | - | 0 W/m² | - |
| 1777427009 | 11.11° C | 86% | 1010.3 hPa | 0 mm | - | 0 W/m² | - |
| 1777426707 | 11.11° C | 84% | 1010.1 hPa | 0 mm | - | 0 W/m² | - |
| 1777426403 | 11.11° C | 85% | 1009.9 hPa | 0 mm | - | 0 W/m² | - |
| 1777426099 | 10.56° C | 86% | 1009.9 hPa | 0 mm | - | 0 W/m² | - |
| 1777425795 | 10.56° C | 86% | 1010.1 hPa | 0 mm | - | 0 W/m² | - |
| 1777425495 | 11.11° C | 85% | 1010 hPa | 0 mm | - | 0 W/m² | - |
| 1777425190 | 11.11° C | 85% | 1010 hPa | 0 mm | - | 0 W/m² | - |
| 1777424887 | 11.11° C | 85% | 1010.1 hPa | 0 mm | - | 0 W/m² | - |
| 1777424583 | 11.67° C | 85% | 1010.1 hPa | 0 mm | - | 0 W/m² | - |
| 1777424278 | 11.67° C | 85% | 1010.1 hPa | 0 mm | - | 0 W/m² | - |
| 1777423975 | 11.67° C | 83% | 1010.1 hPa | 0 mm | - | 0 W/m² | - |
| 1777423672 | 11.67° C | 83% | 1009.8 hPa | 0 mm | - | 0 W/m² | - |
| 1777423367 | 12.22° C | 82% | 1009.9 hPa | 0 mm | - | 0 W/m² | - |
| 1777423062 | 12.78° C | 81% | 1010 hPa | 0 mm | - | 0 W/m² | - |
| 1777422758 | 12.78° C | 80% | 1009.8 hPa | 0 mm | - | 3 W/m² | - |
| 1777422458 | 13.33° C | 80% | 1010.1 hPa | 0 mm | - | 4 W/m² | - |
| 1777422154 | 13.33° C | 81% | 1009.9 hPa | 0 mm | - | 7 W/m² | - |
| 1777421852 | 13.89° C | 80% | 1010.1 hPa | 0 mm | - | 10 W/m² | - |
| 1777421548 | 13.89° C | 79% | 1010.1 hPa | 0 mm | - | 14 W/m² | - |
| 1777421244 | 13.89° C | 78% | 1010 hPa | 0 mm | - | 18 W/m² | - |
| 1777420941 | 14.44° C | 77% | 1009.9 hPa | 0 mm | - | 22 W/m² | - |
| 1777420637 | 14.44° C | 77% | 1010 hPa | 0 mm | - | 25 W/m² | - |
| 1777420334 | 15° C | 76% | 1009.6 hPa | 0 mm | - | 29 W/m² | - |
* Rain latest hour (hover to see other rain measurements)
** Current wind speed in m/s (hover to see current wind gust speed)